Weather Roundup
Issued by NWS Corpus Christi, TX

Home | Current Version | Previous Version | Text Only | Print | Product List | Glossary On
Versions: 1 2 3 4 5 6 7 8 9 10 11 12 13 14 15 16 17 18 19 20 21 22 23 24 25 26 27 28 29 30 31 32 33 34 35 36 37 38 39 40 41 42 43 44 45 46 47 48 49 50
000
ASUS44 KCRP 231410
HRRCRP

SOUTH TEXAS REGIONAL WEATHER ROUNDUP
NATIONAL WEATHER SERVICE CORPUS CHRISTI TX
900 AM CDT SUN JUL 23 2017


TXZ229>244-231500-
...CORPUS CHRISTI AREA OBSERVATIONS...

CITY           SKY/WX    TMP DP  RH WIND       PRES   REMARKS
CORPUS CHRISTI CLOUDY    84  77  79 S20G26    29.92R HX  94
NAS CORPUS CHR CLOUDY    87  78  74 S20G25    29.93R HX 100
ROCKPORT       CLOUDY    86  75  69 S14       29.92S HX  95
KINGSVILLE NAS PTSUNNY   84  78  82 S20       29.93R HX  95
ALICE          CLOUDY    82  76  81 S16G23    29.93R
ORANGE GROVE   CLOUDY   N/A N/A N/A S16G23    29.94R
FALFURRIAS     CLOUDY    81  77  87 SE8       29.94R
$$

...VICTORIA AREA OBSERVATIONS...

CITY           SKY/WX    TMP DP  RH WIND       PRES   REMARKS
VICTORIA       CLOUDY    84  77  79 S6        29.95R HX  94
BEEVILLE       CLOUDY    83  83 100 S16G23    29.94R HX 102
PLEASANTON     MOSUNNY   82  73  72 S8        29.95R
SAN ANTONIO    MOSUNNY   81  72  74 S10       29.97R
$$

...LAREDO AREA OBSERVATIONS...

CITY           SKY/WX    TMP DP  RH WIND       PRES   REMARKS
LAREDO         SUNNY     84  71  65 S16         N/A
COTULLA        SUNNY     82  71  69 S10       29.93R
DEL RIO        SUNNY     82  69  64 SE9       29.93R
MCALLEN        PTSUNNY   84  76  76 SE15G25   29.92R HX  93
HEBBRONVILLE   PTSUNNY   78  72  83 S10G18    29.95S
$$

...OTHER TEXAS OBSERVATIONS...

CITY           SKY/WX    TMP DP  RH WIND       PRES   REMARKS
BROWNSVILLE    MOSUNNY   84  75  74 S17       29.94R HX  92
HOUSTON        MOSUNNY   84  77  79 SW7       29.95R HX  94
COL. STATION   PTSUNNY   82  77  84 SW8       29.95R HX  90
AUSTIN         MOSUNNY   83  74  74 S12       29.94R
WACO           SUNNY     84  74  71 S12       29.93R HX  91
FORT WORTH     MOSUNNY   86  74  67 S12       29.89S HX  94
WICHITA FALLS  MOSUNNY   85  67  54 N6        29.88S
LUBBOCK        MOSUNNY   77  63  61 NW9       30.05R
EL PASO        MOSUNNY   74  67  78 SE5       30.09R
$$

...MARINE OBSERVATIONS...

STATION/POSITION TIME  SKY/WX   TEMP    WIND        PRES    VSBY  WAVE   SWELL
                                AIR SEA DIR/SP/G                  HT/PER HT/PER
                 (UTC)          (F)     (DEG/KT/KT) (MB)    (MI)  (FT/S) (FT/S)
PORT ARANSAS     1300            84 85  170/ 21/ 23 1013.0R
BUOY 90 E PORT A 1250            85 86  180/ 19/ 21 1013.6          4/ 5
BUOY 45 SE BAFFI 1350            85     180/ 17/ 19 1012.9R         5/ 6
BUOY 200 E PT IS 1350            85 87  170/ 10/ 12 1015.6R         3/ 5   2/ 8
BUOY 15 E GALVES 1250            86 87  220/ 16/ 17 1013.7          4/ 5
$$




USA.gov is the U.S. government's official web portal to all federal, state and local government web resources and services.